| time (UTC) | temp C | wind direction | speed KPH | gust KPH | rain 1hr cm | rain 24hr cm | rain mn cm | humidity % | barometer mb |
| 20260504050005 | 8 | 6 | 9.7 | 19.3 | 0.00 | 0.05 | 0.08 | 91 | 1003.7 |
| 20260504041504 | 8 | 313 | 3.2 | 4.8 | 0.00 | 0.05 | 0.08 | 93 | 1003.1 |
| 20260504034504 | 8 | 59 | 0.0 | 8.0 | 0.00 | 0.05 | 0.08 | 93 | 1004.1 |
| 20260504030004 | 8 | 68 | 4.8 | 9.7 | 0.00 | 0.05 | 0.08 | 93 | 1004.1 |
| 20260504024503 | 8 | 32 | 4.8 | 8.0 | 0.00 | 0.05 | 0.08 | 93 | 1004.1 |
| 20260504023003 | 8 | 80 | 1.6 | 4.8 | 0.00 | 0.05 | 0.08 | 93 | 1004.8 |
| 20260504020003 | 8 | 90 | 1.6 | 4.8 | 0.00 | 0.05 | 0.08 | 92 | 1005.1 |
| 20260504014503 | 8 | 92 | 1.6 | 4.8 | 0.00 | 0.05 | 0.08 | 92 | 1005.8 |
| 20260504013003 | 8 | 90 | 1.6 | 3.2 | 0.00 | 0.05 | 0.08 | 92 | 1005.8 |
| 20260504010004 | 9 | 51 | 1.6 | 3.2 | 0.00 | 0.05 | 0.08 | 92 | 1005.6 |
| 20260504004503 | 9 | 49 | 3.2 | 4.8 | 0.00 | 0.05 | 0.08 | 92 | 1006.1 |
| 20260504003004 | 9 | 16 | 1.6 | 4.8 | 0.00 | 0.05 | 0.08 | 91 | 1006.1 |
| 20260503234503 | 9 | 163 | 0.0 | 12.9 | 0.08 | 0.05 | 0.08 | 91 | 1006.3 |
| 20260503223003 | 8 | 202 | 6.4 | 8.0 | 0.00 | 0.00 | 0.00 | 85 | 1007.4 |
| 20260503221504 | 8 | 38 | 0.0 | 3.2 | 0.00 | 0.00 | 0.00 | 84 | 1006.9 |
| 20260503214504 | 9 | 24 | 3.2 | 9.7 | 0.00 | 0.00 | 0.00 | 83 | 1007.2 |
| 20260503213004 | 9 | 21 | 6.4 | 9.7 | 0.00 | 0.00 | 0.00 | 83 | 1007.2 |
| 20260503211503 | 9 | 8 | 4.8 | 8.0 | 0.00 | 0.00 | 0.00 | 83 | 1007.2 |
| 20260503204504 | 10 | 11 | 8.0 | 11.3 | 0.00 | 0.00 | 0.00 | 84 | 1007.5 |
| 20260503203004 | 10 | 356 | 8.0 | 11.3 | 0.00 | 0.00 | 0.00 | 85 | 1007.7 |
| 20260503193004 | 10 | 350 | 3.2 | 9.7 | 0.00 | 0.00 | 0.00 | 86 | 1007.6 |
| 20260503191504 | 11 | 12 | 6.4 | 11.3 | 0.00 | 0.00 | 0.00 | 86 | 1007.7 |
| 20260503181505 | 11 | 356 | 8.0 | 11.3 | 0.00 | 0.00 | 0.00 | 83 | 1007.4 |
| 20260503180004 | 12 | 353 | 6.4 | 11.3 | 0.00 | 0.00 | 0.00 | 82 | 1007.0 |
| 20260503081504 | 19 | 240 | 8.0 | 16.1 | 0.00 | 0.00 | 0.00 | 57 | 1008.2 |
| 20260503071505 | 17 | 206 | 4.8 | 16.1 | 0.00 | 0.00 | 0.00 | 60 | 1008.2 |